Location: Christchurch
(43.5330°S, 172.6330°E)
Time: 23:26:40
(UTC+12:00)

ISS - Visible Passes

Search period start: 14 May 2021 00:00
Search period end: 24 May 2021 00:00
Orbit: 417 x 422 km, 51.6° (Epoch: 14 May)

Date Brightness Start Highest point End Pass type
(mag) Time Alt. Az. Time Alt. Az. Time Alt. Az.
21 May -1.1 06:28:23 10° N 06:31:06 22° NE 06:33:50 10° E visible
22 May -0.6 05:42:01 10° NNE 05:43:49 14° NE 05:45:37 10° E visible
23 May -3.2 06:29:21 10° NW 06:32:44 59° NE 06:36:09 10° ESE visible
